Dewpoint
46 39 38 35 25 24 27 18 22 25 32 34 34 31 32 35 36 44 49 54 58 59 65 69 71 72 71 71 70 70 71 71 71 71 71 71 71 70 70 70 69 68 67 68 67 68 67 67 67
38 36 30 29 26 28 29 24 31 33 35 35 36 36 33 36 41 48 50 54 58 61 62 67 71 71 71 71 70 71 71 71 71 71 71 71 70 70 70 69 69 68 67 68 68 68 68 68 68
40 33 30 30 29 35 32 28 31 34 36 35 35 34 35 36 41 47 57 56 59 59 59 66 70 71 71 71 70 71 71 71 71 71 70 70 70 70 70 69 69 68 67 67 67 68 68 68 67
33 29 30 26 25 24 23 28 32 33 33 32 31 33 49 45 42 51 56 55 59 58 59 67 69 71 71 71 71 71 71 70 70 70 70 70 70 70 70 69 69 68 68 67 67 68 68 67 66
27 29 28 24 20 21 22 23 27 31 31 31 31 34 48 48 49 55 58 57 59 59 65 66 68 70 70 71 71 71 70 70 70 70 70 70 70 70 70 69 68 68 68 68 68 68 67 66 65
30 29 26 25 20 23 22 23 24 23 28 33 31 32 45 50 52 56 58 59 61 62 66 64 68 69 70 70 70 70 69 69 69 70 70 70 70 70 69 68 69 69 68 68 68 68 66 65 65
28 30 28 24 22 23 24 25 25 26 26 26 30 38 48 49 54 56 59 61 61 66 66 64 66 67 69 69 69 69 69 68 69 69 69 70 70 69 68 68 68 68 68 68 67 66 65 65 64
28 30 25 21 20 24 26 24 25 24 31 29 28 39 42 52 54 55 58 60 61 65 67 65 64 65 67 68 68 68 68 68 68 69 69 69 68 68 67 67 67 68 68 67 67 65 64 63 62
26 24 23 19 19 26 27 25 26 26 27 28 32 38 49 54 53 54 57 58 61 62 66 65 64 63 63 64 67 68 68 67 68 68 68 67 66 65 64 65 64 66 66 65 64 63 61 61 61
19 18 20 25 25 25 26 25 24 25 26 27 31 35 50 53 53 52 54 56 60 62 63 65 63 63 63 61 64 67 66 67 67 66 66 66 64 61 59 61 62 65 65 64 63 62 62 62 59
23 18 20 19 26 26 26 25 24 24 23 22 25 32 44 52 52 51 51 52 58 61 63 63 65 64 63 62 64 64 63 63 64 64 64 65 62 62 60 61 61 65 65 63 62 62 62 58 56
22 25 23 21 21 21 24 25 23 24 25 27 26 26 42 49 49 50 49 48 53 58 61 62 65 65 65 63 63 65 62 63 62 63 64 64 63 62 62 60 61 62 62 61 59 59 58 57 56
27 27 26 25 25 25 23 22 23 23 24 25 25 27 27 38 45 45 47 47 49 54 58 61 63 66 67 66 63 64 64 63 63 63 64 64 64 63 63 62 61 62 60 60 59 59 59 59 58
28 28 27 25 23 23 22 21 23 23 22 23 24 25 26 28 32 41 44 45 46 51 55 60 60 67 67 67 67 65 65 64 65 64 64 65 65 64 64 63 63 61 61 60 61 60 60 61 60
28 26 22 21 20 19 23 25 23 24 24 22 22 25 26 27 27 32 36 44 46 47 53 59 60 67 68 68 67 68 64 65 65 64 65 66 65 65 65 64 63 63 62 62 62 61 61 61 61
27 25 21 21 20 25 28 25 25 25 25 25 28 26 24 25 26 27 29 36 43 45 48 59 59 63 68 68 68 67 67 64 64 65 64 67 66 66 65 65 64 63 63 63 62 61 61 61 60
25 21 19 17 23 26 27 23 25 27 26 27 28 29 30 30 29 29 31 31 31 36 48 58 60 61 66 68 68 68 67 66 65 64 65 65 67 67 66 65 64 65 63 63 62 62 62 61 61
21 17 16 16 18 26 24 25 23 23 24 25 26 27 28 30 30 31 34 32 31 31 45 59 61 61 65 67 68 67 66 66 65 65 64 65 66 66 66 65 65 64 64 63 63 62 63 62 61
22 20 19 19 16 17 16 17 16 19 23 23 20 21 26 28 32 32 34 36 35 39 49 57 60 63 64 66 66 65 65 64 64 64 64 64 65 66 66 66 65 66 63 63 63 63 63 62 63
21 20 18 20 18 16 16 16 18 17 16 18 18 22 24 26 28 30 34 34 42 42 46 55 60 63 63 64 65 66 65 64 63 63 64 64 64 65 66 66 65 65 64 64 64 63 63 63 63
22 19 18 19 18 16 17 17 15 12 10 14 23 25 28 30 31 33 36 38 42 45 50 51 57 63 63 63 64 64 65 64 62 62 62 63 64 64 65 66 66 65 65 63 64 64 63 62 63
20 20 18 19 17 14 15 12 11 11 14 22 24 26 29 33 35 40 42 43 44 46 47 49 53 60 63 64 63 63 62 62 62 62 62 62 64 64 64 65 65 66 65 64 64 65 64 64 62
19 20 19 17 18 18 16 14 10 9 8 11 24 26 31 35 40 43 45 48 48 45 46 47 48 48 61 64 64 64 65 64 64 64 63 64 64 66 65 65 66 65 66 65 65 65 65 65 64
21 20 20 21 21 19 18 13 12 12 12 13 16 28 32 37 40 44 47 52 55 54 55 55 51 48 56 62 66 65 65 65 65 65 65 65 66 67 67 66 66 67 66 66 66 66 66 65 65
21 22 20 19 19 19 17 11 12 13 15 17 17 30 34 38 39 43 45 48 53 56 58 55 55 56 58 60 62 64 66 67 66 66 67 66 66 66 66 68 68 67 67 67 67 67 67 67 66
22 23 21 18 17 17 13 12 13 15 18 21 18 29 35 37 39 40 42 43 47 51 52 53 56 58 59 60 61 63 64 65 66 66 66 66 66 66 67 67 68 68 68 67 67 67 66 66 66
20 22 24 22 23 20 18 16 16 17 17 19 20 29 34 36 39 37 39 43 46 49 51 51 49 50 51 52 54 55 58 60 62 63 64 65 66 66 66 66 66 68 68 67 66 66 66 66 66
25 25 23 23 20 18 18 15 12 14 15 18 21 27 34 36 37 37 40 43 46 52 53 54 53 53 53 55 56 57 59 60 60 61 62 63 65 66 67 66 66 65 67 67 66 66 66 65 65
23 23 24 24 22 21 18 18 20 19 19 23 22 31 35 36 35 40 43 46 49 52 53 53 54 55 57 58 59 60 60 60 61 61 62 62 63 64 65 64 64 64 64 65 66 66 65 65 64
22 21 23 26 31 28 23 24 23 22 21 23 23 30 35 37 38 41 44 47 48 48 49 50 50 49 51 53 54 54 54 56 57 59 60 61 62 62 62 62 63 64 64 64 64 64 64 63 62
Wind_Speed
14 15 15 17 8 10 32 7 8 9 13 10 10 9 6 17 13 6 8 24 30 26 22 19 17 18 20 21 19 20 18 16 14 13 12 13 11 11 10 10 10 10 11 11 11 11 11 11 10
12 18 14 8 8 5 11 4 20 17 12 8 5 2 9 15 17 12 10 15 30 26 21 20 19 18 20 20 21 20 19 17 15 14 13 12 12 11 10 10 10 10 10 10 10 10 9 8 7
14 16 11 11 14 13 14 13 13 12 4 2 3 5 6 11 11 8 15 13 31 25 21 21 21 19 18 20 20 19 18 18 16 15 14 13 12 11 10 9 10 10 9 9 9 8 7 6 5
9 10 10 10 10 1 14 11 10 9 4 3 2 5 14 8 6 8 12 17 27 23 21 23 22 21 20 20 21 20 19 19 18 16 15 13 12 11 10 10 9 9 9 9 9 8 6 5 4
13 8 17 21 2 7 10 9 4 5 2 9 9 10 12 12 13 14 13 17 24 21 22 22 21 20 20 21 22 21 20 18 17 16 15 14 13 12 12 11 10 9 8 8 8 8 7 6 4
10 11 19 14 9 6 3 5 4 3 3 11 6 3 12 14 15 14 16 16 20 20 21 21 21 19 19 19 20 21 20 19 17 17 16 15 14 13 12 12 10 10 9 9 9 8 8 7 6
14 15 23 23 10 4 8 2 4 7 7 5 5 5 15 13 16 15 16 16 18 20 20 18 18 18 18 18 18 18 18 17 17 16 16 15 14 13 13 13 12 11 11 11 10 9 9 9 8
13 13 22 8 7 10 10 3 3 7 6 7 4 12 7 19 18 17 18 18 17 19 19 18 16 16 15 14 15 16 17 18 18 17 16 15 13 13 13 13 12 13 13 12 12 12 11 10 10
11 12 21 6 7 13 8 4 6 5 9 2 7 11 19 19 19 18 17 18 18 17 19 19 18 17 17 16 16 17 18 19 18 17 16 15 12 13 13 14 16 15 14 13 13 13 12 12 12
11 17 19 16 12 11 10 9 12 4 13 12 13 8 21 20 18 18 19 19 21 20 20 21 21 21 19 17 18 17 15 14 14 14 14 12 13 13 15 17 16 17 15 15 14 14 13 12 11
13 18 20 18 12 8 10 18 14 11 13 11 8 12 19 16 18 17 18 19 22 22 20 22 23 22 22 19 18 17 15 16 16 18 16 16 14 15 17 12 14 12 14 11 13 12 12 14 14
13 14 18 14 17 17 13 20 23 16 17 22 11 2 15 20 17 18 19 20 21 24 23 23 26 22 23 19 18 19 19 18 17 19 20 16 16 16 13 13 15 15 14 16 15 14 16 18 18
14 16 17 18 16 16 18 21 23 24 20 19 20 11 11 13 18 17 19 19 25 26 25 25 24 25 21 20 17 16 19 20 18 18 20 19 16 15 15 13 14 17 16 17 17 17 19 19 19
19 16 17 19 20 19 20 22 19 27 25 22 22 18 19 18 18 19 20 19 17 27 27 26 24 26 24 23 19 17 14 19 20 19 20 24 18 16 15 16 14 15 16 16 18 17 16 15 16
15 19 21 23 23 21 10 19 25 33 21 18 18 19 21 16 18 21 22 22 21 16 28 30 26 24 26 23 22 16 18 14 17 18 19 25 23 19 15 15 16 15 16 15 13 15 16 14 14
22 22 21 23 7 6 9 20 19 5 9 12 12 17 23 18 22 22 19 19 24 24 22 31 28 24 25 22 20 19 15 18 18 16 17 19 23 21 17 14 16 17 15 15 16 14 13 14 16
18 22 21 20 15 8 12 20 19 18 17 14 15 18 16 13 18 18 18 18 17 18 23 33 30 28 26 21 19 18 19 16 16 17 15 18 21 22 21 17 17 15 17 16 15 16 17 16 17
21 22 19 17 13 11 14 19 19 19 19 19 18 22 18 17 21 20 16 19 23 20 19 33 29 27 25 21 17 15 17 17 17 16 19 18 20 22 21 21 17 19 16 17 16 18 14 17 18
25 27 26 27 22 26 18 24 23 21 18 20 22 10 15 22 18 17 16 16 6 9 15 29 28 26 23 22 21 21 20 20 19 21 19 22 19 23 23 21 22 18 21 21 19 19 22 21 16
29 29 26 25 27 25 24 24 27 22 23 20 19 12 8 8 9 8 6 3 6 11 10 19 27 27 25 22 20 19 20 18 20 18 20 18 20 20 22 23 22 23 23 22 23 22 22 22 20
28 30 26 28 27 29 27 28 26 31 31 18 7 9 6 3 6 2 3 2 5 3 3 11 18 26 25 22 18 16 15 18 19 17 19 20 22 20 23 22 24 23 21 24 24 23 25 23 19
28 27 27 27 27 22 23 27 26 21 8 16 15 11 7 7 3 4 3 5 6 9 10 10 7 21 24 25 19 20 18 19 17 17 16 19 23 25 24 24 22 22 21 22 20 19 23 21 24
29 26 22 24 25 24 25 18 22 23 23 23 21 17 10 6 9 11 9 9 8 4 3 4 6 7 16 21 19 17 17 15 15 15 19 18 17 22 24 24 22 24 19 23 24 20 20 22 24
28 28 25 24 19 25 26 23 30 25 24 23 16 21 17 13 7 11 13 13 12 10 8 4 4 4 2 9 16 14 10 10 11 13 15 13 13 12 20 22 23 22 22 24 21 23 22 23 22
30 24 23 25 26 23 26 26 31 28 27 29 12 22 20 17 16 15 14 14 13 12 10 9 12 9 6 4 1 5 9 11 13 13 13 13 13 14 15 17 19 20 20 21 22 20 21 21 21
29 25 26 33 28 25 30 32 30 31 8 9 4 17 20 17 16 14 17 14 13 12 9 6 9 13 10 7 7 7 8 10 12 14 15 15 15 15 15 17 18 20 20 19 16 17 19 19 21
34 34 30 30 29 23 29 33 33 18 5 6 5 13 18 18 15 11 14 14 14 13 11 9 10 15 15 13 13 12 12 10 8 11 11 12 13 13 16 18 20 17 16 17 16 19 21 18 19
24 26 33 30 32 35 29 33 27 27 17 16 23 20 20 19 20 17 15 12 12 15 12 12 15 14 12 12 12 12 12 13 13 13 13 14 14 14 14 15 17 16 15 16 17 18 17 17 16
23 23 27 25 28 28 34 31 25 26 21 17 15 19 21 18 21 20 17 13 13 16 14 13 14 15 15 14 13 12 11 11 11 13 14 14 15 17 17 17 17 16 18 17 15 17 16 17 17
21 29 25 15 12 27 28 27 23 24 25 17 19 24 26 21 21 20 17 15 10 15 14 16 15 16 16 15 14 15 15 16 16 15 15 14 14 13 14 16 19 18 16 17 19 18 16 12 11
Wind_Direction
278 265 248 257 258 232 300 76 108 129 89 72 49 43 22 53 41 101 146 109 118 128 134 138 138 139 140 140 141 144 146 146 146 141 136 134 130 122 120 117 116 113 114 114 115 113 110 108 99
287 288 246 279 261 49 276 154 76 67 77 96 143 212 56 62 80 119 128 124 127 130 141 142 143 144 142 146 148 149 150 151 151 151 148 146 141 138 133 128 122 128 126 125 127 126 121 116 104
274 267 279 218 209 220 249 56 78 81 123 178 106 92 36 46 72 108 106 160 126 134 144 144 148 147 149 151 152 153 155 156 158 158 157 157 153 151 146 139 137 143 141 141 144 139 137 131 119
264 260 234 249 214 105 43 71 77 115 164 330 351 81 86 53 64 93 130 154 128 138 144 150 152 154 157 156 153 158 161 163 164 166 165 164 163 162 155 155 153 157 159 157 157 155 154 161 156
258 278 267 262 299 77 66 40 340 138 136 109 332 92 99 84 84 107 138 137 133 143 131 152 157 160 162 162 161 162 165 167 168 169 168 171 173 170 165 168 168 169 173 171 165 167 173 186 198
282 252 278 316 102 91 92 41 343 322 326 105 240 118 96 116 113 124 138 145 133 140 140 153 162 167 169 170 166 166 168 171 174 174 176 178 179 178 178 178 177 177 177 174 177 186 189 199 212
267 288 287 287 102 165 84 320 295 359 338 254 85 96 128 126 125 138 138 140 143 133 142 154 167 173 177 174 173 172 173 175 178 181 184 187 187 187 188 187 184 181 182 183 190 199 204 209 217
285 290 287 274 321 107 106 248 98 271 101 30 20 147 173 129 143 145 148 155 153 148 145 156 171 176 181 178 177 176 179 183 184 187 191 193 196 199 199 194 195 190 189 195 201 205 215 219 226
258 274 274 261 254 80 94 330 176 249 299 217 118 73 116 137 152 156 155 163 166 174 157 165 179 182 184 181 182 181 186 191 190 192 195 195 200 199 209 206 202 200 201 204 208 213 214 223 237
236 254 270 358 7 2 342 296 288 276 227 229 177 159 134 152 164 173 176 174 175 184 183 174 184 183 186 192 178 183 186 193 197 198 193 204 216 212 209 204 208 201 205 209 213 217 222 224 236
252 252 297 320 348 348 316 300 293 286 271 287 225 197 153 169 177 185 189 191 183 187 191 186 185 187 187 202 176 180 189 193 198 201 198 198 214 232 204 207 190 190 206 213 217 220 223 225 228
263 283 282 299 296 305 286 288 289 294 291 305 318 190 163 175 196 201 205 199 185 187 193 195 182 189 191 198 193 183 188 191 196 201 199 196 215 216 210 203 188 194 201 209 214 211 213 221 227
281 270 271 277 290 280 278 272 278 276 272 277 289 285 194 218 194 219 217 219 187 187 188 192 188 186 189 208 206 202 189 190 196 195 200 204 203 225 213 211 210 194 203 197 216 216 213 216 219
292 299 287 278 272 273 273 274 276 269 260 250 259 262 266 213 219 210 218 226 225 183 183 183 191 183 188 197 222 201 206 192 193 202 197 198 209 212 212 209 225 236 200 210 202 217 231 218 215
291 287 279 269 249 246 264 281 265 254 256 263 258 261 253 258 257 219 220 210 212 214 180 177 184 178 188 195 211 231 202 219 200 203 198 192 202 214 216 212 214 230 230 231 229 219 220 233 229
281 275 279 279 138 199 199 276 285 78 227 247 268 260 261 254 251 249 250 222 207 207 191 175 178 178 187 193 200 217 227 206 224 203 208 194 197 206 224 225 217 220 227 227 222 236 235 236 236
258 260 268 272 191 185 224 272 285 306 299 274 272 277 263 275 270 248 236 264 259 233 198 169 176 179 178 193 201 209 217 225 212 225 205 209 198 200 209 225 230 225 223 230 223 217 224 232 235
264 266 264 246 251 205 245 256 267 276 278 272 248 243 243 229 247 257 241 228 233 229 203 166 172 179 176 182 197 215 222 232 223 215 221 210 207 205 205 218 229 224 232 225 228 230 225 224 233
264 272 281 292 304 299 279 280 283 278 268 270 276 273 229 240 234 251 265 272 230 261 164 158 170 176 171 181 193 208 218 222 232 219 224 216 216 202 210 216 221 233 225 230 223 224 228 237 228
270 276 280 276 280 273 274 280 280 281 278 272 274 281 275 235 237 250 195 293 266 205 205 174 170 173 180 184 195 204 214 223 221 229 224 220 218 216 206 213 219 221 232 230 226 223 228 234 224
266 269 268 277 285 287 290 277 272 268 254 242 249 260 285 304 272 173 69 20 337 299 243 195 174 173 180 185 191 208 214 219 232 224 225 222 220 220 217 212 217 224 227 231 232 229 226 233 231
259 263 263 264 268 269 269 278 289 292 259 197 217 226 235 155 202 89 88 47 1 332 340 325 250 180 181 185 194 201 214 226 232 234 229 223 215 218 219 218 222 221 229 239 239 233 235 233 239
259 266 271 278 288 284 264 266 269 268 269 270 192 183 206 171 147 129 111 101 78 72 345 293 316 308 177 183 193 209 219 226 232 233 240 241 226 214 218 220 220 227 223 230 239 240 238 234 239
262 261 261 269 257 265 263 264 269 264 274 279 208 173 173 159 157 137 124 112 99 88 75 79 169 230 49 157 188 211 230 247 264 257 263 268 266 241 214 217 223 226 225 235 237 241 245 233 229
242 250 253 250 245 249 253 250 254 262 261 254 297 158 166 165 171 158 160 126 119 112 113 99 83 71 56 52 299 234 232 247 262 275 280 275 275 274 257 226 217 224 227 228 235 235 236 239 227
253 242 243 247 245 250 242 244 249 252 272 15 292 178 158 169 175 175 131 137 120 101 78 87 142 154 162 174 202 228 234 243 244 239 246 257 258 265 265 259 241 222 219 220 222 232 242 245 246
243 242 252 250 260 259 271 279 282 271 235 265 266 168 170 170 161 162 135 124 113 109 85 57 48 55 46 36 27 21 20 356 315 311 307 300 296 297 292 287 280 240 226 225 230 237 241 234 234
280 301 231 243 249 247 248 255 261 272 268 229 217 197 172 176 162 167 135 119 112 101 91 74 75 70 62 56 42 34 23 15 2 352 340 330 321 306 304 317 313 292 254 235 220 234 239 235 238
273 264 268 245 243 241 244 245 255 266 288 311 270 178 171 191 168 137 130 122 117 106 104 97 89 86 75 69 62 55 43 35 27 23 21 13 13 2 343 329 319 305 301 277 243 233 238 232 235
266 271 264 261 270 284 267 243 239 258 250 303 304 197 186 177 146 132 127 121 125 116 107 94 87 82 84 75 63 54 48 42 36 29 15 12 12 16 15 14 5 343 330 320 288 258 242 246 250